User: anonymous   Login
Location: Unspecified
(0.0000°N, 0.0000°E)
Time: 11:59:16
(UTC+00:00)
Language:

USA 103 - Orbit

View from above orbital plane
View from above orbital plane
View from above satellite
View from above satellite

Ground track
Ground track

The orbit data is extracted from the following two-line orbital elements,

1 23097U 94026A   17224.54541840 0.00000000  00000-0  00000-0 0    02
2 23097  64.0563 133.6975 6503518 264.0233  23.9363  2.00604000    07
Epoch (UTC): 12 August 2017 13:05:24
Eccentricity: 0.6503518
inclination: 64.0563°
perigee height: 2907 km
apogee height: 37449 km
right ascension of ascending node: 133.6975°
argument of perigee: 264.0233°
revolutions per day: 2.00604000
mean anomaly at epoch: 23.9363°
orbit number at epoch: 0

The dashed part of the orbit path shows where the satellite is in the earth's shadow,  

DLR